Location: Cactus School
(34.5700°N, 118.0931°W)
Time: 05:43:41
(UTC-08:00)

ISS - Visible Passes

Search period start: 25 February 2018 00:00
Search period end: 07 March 2018 00:00
Orbit: 402 x 407 km, 51.6° (Epoch: 25 February)

Date Brightness Start Highest point End Pass type
(mag) Time Alt. Az. Time Alt. Az. Time Alt. Az.
25 Feb -3.7 05:54:37 10° SW 05:57:52 79° SE 06:01:08 10° NE visible
26 Feb -2.3 05:03:23 15° SSW 05:05:42 34° SE 05:08:43 10° ENE visible
27 Feb -1.0 04:14:04 16° ESE 04:14:04 16° ESE 04:15:45 10° E visible
27 Feb -3.1 05:46:47 10° WSW 05:49:51 36° NW 05:52:55 10° NNE visible
28 Feb -4.0 04:57:13 67° W 04:57:32 78° NW 05:00:49 10° NE visible
01 Mar -0.9 04:07:28 18° ENE 04:07:28 18° ENE 04:08:27 10° ENE visible
01 Mar -1.9 05:40:08 12° WNW 05:41:56 17° NNW 05:44:12 10° NNE visible
02 Mar -2.3 04:50:14 26° N 04:50:14 26° N 04:52:23 10° NNE visible
03 Mar -0.5 04:00:11 11° NE 04:00:11 11° NE 04:00:20 10° NE visible
04 Mar -1.3 04:42:42 13° N 04:42:42 13° N 04:43:28 10° N visible
